This is the latest recevied weather packets stored in our database for station/object KY0TEQ-13. If no packets are shown the sender has not sent any weather packets the latest 10 day(s).
| Time | Temp. | Humidity | Pressure | Rain* | Wind** | Luminosity | Snow |
|---|---|---|---|---|---|---|---|
| 1788371126 | 23.33° C | 33% | 1310.8 hPa | 0 mm | - | 658 W/m² | - |
| 1788370821 | 23.33° C | 33% | 1311.1 hPa | 0 mm | - | 661 W/m² | - |
| 1788370521 | 23.33° C | 32% | 1311.2 hPa | 0 mm | - | 676 W/m² | - |
| 1788370221 | 22.78° C | 34% | 1311 hPa | 0 mm | - | 644 W/m² | - |
| 1788369921 | 22.78° C | 34% | 1311.3 hPa | 0 mm | - | 638 W/m² | - |
| 1788369616 | 22.22° C | 36% | 1311.1 hPa | 0 mm | - | 627 W/m² | - |
| 1788369328 | 22.22° C | 35% | 1311.1 hPa | 0 mm | - | 616 W/m² | - |
| 1788369007 | 22.22° C | 37% | 1311.1 hPa | 0 mm | - | 610 W/m² | - |
| 1788368702 | 22.78° C | 36% | 1310.8 hPa | 0 mm | - | 602 W/m² | - |
| 1788368397 | 21.67° C | 38% | 1311.1 hPa | 0 mm | - | 592 W/m² | - |
| 1788368097 | 21.67° C | 37% | 1311.1 hPa | 0 mm | - | 583 W/m² | - |
| 1788367792 | 21.67° C | 36% | 1311.1 hPa | 0 mm | - | 573 W/m² | - |
| 1788367488 | 22.22° C | 36% | 1311 hPa | 0 mm | - | 564 W/m² | - |
| 1788367186 | 22.22° C | 35% | 1311.1 hPa | 0 mm | - | 556 W/m² | - |
| 1788366882 | 22.78° C | 34% | 1311.1 hPa | 0 mm | - | 545 W/m² | - |
| 1788366579 | 21.11° C | 36% | 1311.1 hPa | 0 mm | - | 534 W/m² | - |
| 1788366275 | 21.67° C | 35% | 1311.1 hPa | 0 mm | - | 524 W/m² | - |
| 1788365974 | 21.11° C | 36% | 1311.1 hPa | 0 mm | - | 511 W/m² | - |
| 1788365670 | 20.56° C | 36% | 1311.2 hPa | 0 mm | - | 497 W/m² | - |
| 1788365366 | 20.56° C | 37% | 1311.1 hPa | 0 mm | - | 487 W/m² | - |
| 1788365061 | 20° C | 38% | 1311.1 hPa | 0 mm | - | 473 W/m² | - |
| 1788364759 | 20.56° C | 37% | 1311 hPa | 0 mm | - | 461 W/m² | - |
| 1788364455 | 20° C | 38% | 1311.2 hPa | 0 mm | - | 447 W/m² | - |
| 1788364154 | 20° C | 38% | 1311.3 hPa | 0 mm | - | 433 W/m² | - |
| 1788363850 | 18.89° C | 40% | 1311.1 hPa | 0 mm | - | 418 W/m² | - |
* Rain latest hour (hover to see other rain measurements)
** Current wind speed in m/s (hover to see current wind gust speed)